This is the latest recevied weather packets stored in our database for station/object W8DRH-13. If no packets are shown the sender has not sent any weather packets the latest 10 day(s).
| Time | Temp. | Humidity | Pressure | Rain* | Wind** | Luminosity | Snow |
|---|---|---|---|---|---|---|---|
| 1778085224 | 13.33° C | 70% | 1009.9 hPa | 0 mm | - | 608 W/m² | - |
| 1778084920 | 12.78° C | 66% | 1009.8 hPa | 0 mm | - | 621 W/m² | - |
| 1778084617 | 12.78° C | 67% | 1010.1 hPa | 0 mm | - | 386 W/m² | - |
| 1778084309 | 12.78° C | 69% | 1010.3 hPa | 0 mm | - | 1037 W/m² | - |
| 1778084006 | 12.78° C | 69% | 1010.2 hPa | 0 mm | - | 955 W/m² | - |
| 1778083704 | 12.78° C | 70% | 1010.2 hPa | 0 mm | - | 491 W/m² | - |
| 1778083400 | 12.78° C | 71% | 1010.3 hPa | 0 mm | - | 956 W/m² | - |
| 1778083099 | 12.22° C | 71% | 1009.9 hPa | 0 mm | - | 645 W/m² | - |
| 1778082795 | 12.22° C | 72% | 1009.7 hPa | 0 mm | - | 635 W/m² | - |
| 1778081668 | 11.67° C | 74% | 1009.5 hPa | 0 mm | - | 653 W/m² | - |
| 1778081365 | 11.67° C | 73% | 1009.5 hPa | 0 mm | - | 728 W/m² | - |
| 1778081062 | 11.67° C | 75% | 1009.5 hPa | 0 mm | - | 762 W/m² | - |
| 1778080761 | 11.11° C | 75% | 1009.4 hPa | 0 mm | - | 751 W/m² | - |
| 1778080457 | 11.11° C | 73% | 1009.8 hPa | 0 mm | - | 764 W/m² | - |
| 1778080155 | 11.11° C | 75% | 1009.7 hPa | 0 mm | - | 767 W/m² | - |
| 1778079851 | 10.56° C | 76% | 1009.4 hPa | 0 mm | - | 741 W/m² | - |
| 1778079548 | 10.56° C | 76% | 1009.5 hPa | 0 mm | - | 738 W/m² | - |
| 1778079244 | 11.11° C | 78% | 1009.3 hPa | 0 mm | - | 757 W/m² | - |
| 1778078942 | 10.56° C | 76% | 1009.5 hPa | 0 mm | - | 780 W/m² | - |
| 1778078638 | 10.56° C | 79% | 1009.4 hPa | 0 mm | - | 761 W/m² | - |
| 1778078336 | 10.56° C | 79% | 1009.2 hPa | 0 mm | - | 761 W/m² | - |
| 1778078033 | 10.56° C | 79% | 1009.1 hPa | 0 mm | - | 761 W/m² | - |
| 1778077732 | 10° C | 79% | 1009 hPa | 0 mm | - | 452 W/m² | - |
| 1778077429 | 10° C | 79% | 1009 hPa | 0 mm | - | 634 W/m² | - |
| 1778077127 | 10° C | 81% | 1008.8 hPa | 0 mm | - | 636 W/m² | - |
* Rain latest hour (hover to see other rain measurements)
** Current wind speed in m/s (hover to see current wind gust speed)